Regional Weather Roundup
Issued by NWS

Home | Current Version | Previous Version | Text Only | Print | Product List | Glossary Off
Versions: 1 2 3 4 5 6 7 8 9 10 11 12 13 14 15 16 17 18 19 20 21 22 23 24 25 26 27 28 29 30 31 32 33 34 35 36 37 38 39 40 41 42 43 44 45 46 47 48 49 50

000
ASUS43 KMPX 070210
RWRMN
WEATHER ROUNDUP FOR MINNESOTA
NATIONAL WEATHER SERVICE TWIN CITIES/CHANHASSEN MN
800 PM CST SAT FEB 06 2016


NOTE: "FAIR" INDICATES FEW OR NO CLOUDS BELOW 12,000 FEET WITH NO
SIGNIFICANT WEATHER AND/OR OBSTRUCTIONS TO VISIBILITY. N/A MEANS
CURRENT SKY AND/OR WEATHER CONDITIONS ARE NOT AVAILABLE.

MNZ060>063-068>070-070300-
   Twin Cities Metro

CITY           SKY/WX    TMP DP  RH WIND       PRES   REMARKS
TWIN CITIES    LGT RAIN  36  27  69 SW12      29.85S
ST PAUL        CLOUDY    34  27  75 S7        29.86S WCI  28
CRYSTAL        LGT RAIN  36  28  73 S10       29.82F
BLAINE         CLOUDY    37  30  75 SW15G22   29.82S
LAKEVILLE      CLOUDY    34  28  80 SW9G16    29.84F WCI  26
EDEN PRAIRIE   LGT RAIN  35  28  75 SW13      29.84S WCI  26
SOUTH ST PAUL  CLOUDY    35  28  75 SW10      29.86S WCI  27
LAKE ELMO      CLOUDY    32  30  93 S13       29.86S WCI  22
$$
MNZ001>005-007-008-013>017-022>024-027-028-070300-
   Northwest Minnesota

CITY           SKY/WX    TMP DP  RH WIND       PRES   REMARKS
BEMIDJI        CLOUDY    35  29  79 S10       29.59F WCI  27
HALLOCK        CLOUDY    36  32  87 S12       29.47F
ROSEAU         CLOUDY    34  28  80 S13       29.49F WCI  25
WARROAD        CLOUDY    32  28  86 SE6       29.50F WCI  26
THIEF RVR FALL CLOUDY    37  30  75 SW13      29.53F
CROOKSTON      MOCLDY    36  34  93 SW10      29.56S
FOSSTON        CLOUDY    34  30  86 S12       29.57F WCI  25
DETROIT LAKES  PTCLDY    36  32  87 SW10      29.64F
MOORHEAD       CLOUDY    36  34  93 SW6       29.63F
PARK RAPIDS    CLOUDY    36  30  79 SW9       29.63F
MAHNOMEN       MOCLDY    34  32  91 S16       29.58F WCI  24
$$
MNZ006-009>011-018-025>026-070300-
   North Central Minnesota

CITY           SKY/WX    TMP DP  RH WIND       PRES   REMARKS
BAUDETTE       CLOUDY    32  26  78 SE9       29.53F WCI  24
FLAG ISLAND    CLOUDY    30  28  93 SE9       29.51F WCI  22
INTL FALLS     LGT SNOW  31  29  92 SE6       29.58F FOG     WCI  25
WASKISH        CLOUDY    36  28  75 S5        29.55F
LONGVILLE      CLOUDY    36  28  75 S6        29.65F
GRAND RAPIDS   CLOUDY    32  27  80 S12       29.66S WCI  23
CRANE LAKE     CLOUDY    30  28  93 SE5       29.66F VSB 1   WCI  25
ORR            LGT SNOW  30  27  86 SE6       29.61F WCI  24
COOK           LGT SNOW  30  27  86 S8        29.65F WCI  23
WALKER         MOCLDY    35  28  77 SW10G18   29.62F WCI  27
$$
MNZ012-019>021-037-070300-
   Northeast Minnesota

CITY           SKY/WX    TMP DP  RH WIND       PRES   REMARKS
DULUTH         FLURRIES  32  24  72 S14       29.70F WCI  22
ELY            LGT SNOW  30  28  93 S7        29.67F WCI  23
HIBBING        LGT SNOW  30  26  85 S7        29.66F FOG     WCI  23
EVELETH        LGT SNOW  32  28  86 S10       29.68F WCI  24
DULUTH HARBOR  MOCLDY    36  27  69 S13       29.75S
TWO HARBORS    CLOUDY    36  28  75 S5        29.71F
SILVER BAY     LGT SNOW  30  28  93 CALM      29.72F
GRAND MARAIS     N/A     32  29  88 NE9       29.78F WCI  24
G MARAIS ARPRT LGT SNOW  25  21  86 E6        29.73F WCI  18
$$
MNZ029>031-032-039>041-046>048-054>057-064-070300-
   West Central Minnesota

CITY           SKY/WX    TMP DP  RH WIND       PRES   REMARKS
FERGUS FALLS   LGT RAIN  36  36 100 S9        29.71F
WHEATON        CLOUDY    37  34  87 S8        29.72F
MORRIS         CLOUDY    36  30  80 SW10      29.74F
ALEXANDRIA     CLOUDY    35  30  82 SW12      29.74F WCI  27
ELBOW LAKE     LGT RAIN  33  32  94 SW9       29.72F WCI  26
WADENA         CLOUDY    34  30  86 SW12G18   29.68S WCI  25
GLENWOOD       CLOUDY    36  30  80 SW10      29.76F
APPLETON       CLOUDY    37  30  75 SW9       29.77F
BENSON         CLOUDY    36  28  75 W10       29.78F
ORTONVILLE     CLOUDY    37  28  70 CALM      29.75F
MADISON        CLOUDY    37  30  75 W7        29.79S
WILLMAR        FAIR      36  30  80 SW13      29.81R
$$
MNZ033>034-036-042>043-049>051-058-059-070300-
   Central Minnesota

CITY           SKY/WX    TMP DP  RH WIND       PRES   REMARKS
ST CLOUD       CLOUDY    34  28  79 S10       29.76F WCI  26
SAUK CENTRE    MOCLDY    34  31  90 SW7       29.76S WCI  28
PAYNESVILLE    CLOUDY    34  31  89 W8        29.80R WCI  27
AITKIN         FLURRIES  37  27  65 S10       29.70R
PINE RIVER     CLOUDY    36  30  80 SW13      29.71F
BRAINERD       FLURRIES  34  28  79 S15       29.71R WCI  24
STAPLES        CLOUDY    34  32  93 SW10      29.70F WCI  26
LONG PRAIRIE   MIX PCPN  34  32  93 S9        29.75F WCI  26
LITTLE FALLS   FLURRIES  34  30  86 SW7       29.76R WCI  28
LITCHFIELD     CLOUDY    36  32  87 SW6       29.79F
BUFFALO        DRIZZLE   34  29  83 S9G16     29.81F WCI  26
MAPLE LAKE     CLOUDY    35  31  88 S9        29.79F WCI  27
$$
MNZ037-044-045-052-053-070300-
   East Central Minnesota

CITY           SKY/WX    TMP DP  RH WIND       PRES   REMARKS
PRINCETON      DRIZZLE   36  30  80 S10G16    29.77F
MORA           CLOUDY    34  27  75 SW9       29.78F WCI  26
CAMBRIDGE      MIX PCPN  36  27  69 S9        29.77F
RUSH CITY      CLOUDY    34  27  77 S15       29.78F WCI  24
MOOSE LAKE     CLOUDY    34  27  75 SW13      29.71F WCI  25
HINCKLEY       CLOUDY    34  28  80 S12       29.76F WCI  25
CLOQUET        LGT SNOW  34  27  75 S13G18    29.71F WCI  25
MCGREGOR       CLOUDY    34  28  80 S12G18    29.70F WCI  25
$$
MNZ071>073-080-081-089-090-097-098-070300-
   Southwest Minnesota

CITY           SKY/WX    TMP DP  RH WIND       PRES   REMARKS
MONTEVIDEO     CLOUDY    36  30  80 W8        29.81S
GRANITE FALLS  CLOUDY    36  31  82 SW12      29.83R
CANBY          MOCLDY    39  32  77 SW20      29.80R
MARSHALL       CLOUDY    35  27  72 SW20G25   29.81R WCI  24
REDWOOD FALLS  CLOUDY    35  28  75 SW15      29.80F WCI  25
OLIVIA         CLOUDY    34  30  86 SW10      29.79F WCI  26
PIPESTONE      CLOUDY    32  21  64 SW10      29.82S WCI  24
WINDOM         MOCLDY    34  28  80 SW14      29.84F WCI  24
WORTHINGTON    CLOUDY    30  25  80 SW21      29.84F WCI  17
JACKSON        PTCLDY    34  27  75 SW17      29.86S WCI  23
TRACY          CLOUDY    35  28  78 SW20      29.81S WCI  23
SLAYTON        MOCLDY    31  28  90 SW21      29.81F WCI  19
$$
MNZ065>067-074>077-082>085-091>093-070300-
   South Central Minnesota

CITY           SKY/WX    TMP DP  RH WIND       PRES   REMARKS
MANKATO        CLOUDY    34  27  75 S13       29.86F WCI  25
NEW ULM        CLOUDY    36  28  75 SW10      29.84S
ST JAMES       CLOUDY    36  30  80 S13       29.86S
FAIRMONT       CLOUDY    32  25  74 S13       29.86S WCI  22
GLENCOE        CLOUDY    35  32  88 S12G17    29.81F WCI  27
FARIBAULT      CLOUDY    34  28  80 S13G18    29.88S WCI  25
OWATONNA       CLOUDY    34  27  75 S18G26    29.88S WCI  23
WASECA         CLOUDY    32  28  86 S18G24    29.89S WCI  20
ALBERT LEA     CLOUDY    32  28  86 S12G18    29.89F WCI  23
$$
MNZ078>079-086>088-094>096-070300-
   Southeast Minnesota

CITY           SKY/WX    TMP DP  RH WIND       PRES   REMARKS
ROCHESTER      CLOUDY    28  25  88 S22       29.90F FOG     WCI  14
RED WING       PTCLDY    34  27  75 S7        29.89S WCI  28
STANTON        CLOUDY    33  28  81 S10G21    29.86S WCI  24
DODGE CENTER   CLOUDY    28  27  93 S22G28    29.88F WCI  15
WINONA         MOCLDY    32  27  80 S6        29.95F WCI  26
AUSTIN         CLOUDY    28  27  93 S16       29.91F WCI  17
PRESTON        CLOUDY    27  26  93 S20G25    29.93F FOG     WCI  14
$$
ABBREVIATIONS USED IN REMARKS
   TC - TEMPERATURES IN CELSIUS
  WCI - WIND CHILL INDEX
   HX - HEAT INDEX
  VSB - VISIBILITY
$$



USA.gov is the U.S. government's official web portal to all federal, state and local government web resources and services.